• In Russia
  • List of Countries
  • For 7 days
  • Water Temperature
  • Weather Map
  • Weather Widgets
  • user-avatar
    Login

    Hourly Weather Red Deer

    Today, 3 June, Wednesday

    Time Temperature Precipitation Wind Pressure Humidity
    00:00 +7°C° 0.1 mm 8 mps 677 mmHg 78%
    01:00 +6°C° 0.1 mm 9 mps 678 mmHg 82%
    02:00 +5°C° 0 mm 7 mps 678 mmHg 82%
    03:00 +4°C° 0 mm 6 mps 679 mmHg 83%
    04:00 +5°C° 0 mm 5 mps 680 mmHg 83%
    05:00 +5°C° 0 mm 6 mps 680 mmHg 75%
    06:00 +8°C° 0 mm 7 mps 680 mmHg 66%
    07:00 +9°C° 0 mm 8 mps 681 mmHg 58%
    08:00 +10°C° 0 mm 7 mps 681 mmHg 55%
    09:00 +11°C° 0 mm 7 mps 681 mmHg 51%
    10:00 +14°C° 0 mm 7 mps 681 mmHg 48%
    11:00 +14°C° 0 mm 7 mps 681 mmHg 46%
    12:00 +15°C° 0 mm 6 mps 681 mmHg 43%
    13:00 +16°C° 0 mm 6 mps 681 mmHg 41%
    14:00 +15°C° 0 mm 6 mps 681 mmHg 42%
    15:00 +15°C° 0 mm 6 mps 680 mmHg 44%
    16:00 +15°C° 0 mm 6 mps 680 mmHg 45%
    17:00 +14°C° 0 mm 5 mps 680 mmHg 51%
    18:00 +12°C° 0 mm 4 mps 680 mmHg 57%
    19:00 +11°C° 0 mm 3 mps 680 mmHg 63%
    20:00 +10°C° 0 mm 3 mps 680 mmHg 67%
    21:00 +8°C° 0 mm 3 mps 680 mmHg 70%
    22:00 +7°C° 0 mm 3 mps 681 mmHg 74%
    23:00 +5°C° 0 mm 3 mps 681 mmHg 76%

    Tomorrow, 4 June, Thursday

    Time Temperature Precipitation Wind Pressure Humidity
    00:00 +4°C° 0 mm 3 mps 681 mmHg 78%
    01:00 +4°C° 0 mm 3 mps 681 mmHg 81%
    02:00 +4°C° 0 mm 3 mps 681 mmHg 81%
    03:00 +3°C° 0 mm 3 mps 681 mmHg 82%
    04:00 +3°C° 0 mm 3 mps 681 mmHg 83%
    05:00 +5°C° 0 mm 4 mps 681 mmHg 78%
    06:00 +7°C° 0 mm 4 mps 681 mmHg 72%
    07:00 +10°C° 0 mm 4 mps 681 mmHg 67%
    08:00 +11°C° 0.3 mm 4 mps 681 mmHg 67%
    09:00 +12°C° 0.3 mm 4 mps 681 mmHg 67%
    10:00 +13°C° 0.3 mm 4 mps 682 mmHg 67%
    11:00 +13°C° 0.8 mm 4 mps 682 mmHg 66%
    12:00 +13°C° 0.8 mm 4 mps 682 mmHg 65%
    13:00 +14°C° 0.8 mm 4 mps 681 mmHg 65%
    14:00 +14°C° 0 mm 4 mps 682 mmHg 64%
    15:00 +14°C° 0 mm 4 mps 682 mmHg 62%
    16:00 +14°C° 0 mm 3 mps 682 mmHg 61%
    17:00 +13°C° 0 mm 3 mps 682 mmHg 69%
    18:00 +12°C° 0 mm 3 mps 682 mmHg 76%
    19:00 +10°C° 0 mm 2 mps 682 mmHg 83%
    20:00 +9°C° 0 mm 2 mps 682 mmHg 86%
    21:00 +8°C° 0 mm 2 mps 682 mmHg 89%
    22:00 +7°C° 0 mm 2 mps 682 mmHg 92%
    23:00 +6°C° 0 mm 2 mps 682 mmHg 93%

    Day after tomorrow, 5 June, Friday

    Time Temperature Precipitation Wind Pressure Humidity
    00:00 +6°C° 0 mm 2 mps 682 mmHg 93%
    01:00 +6°C° 0 mm 2 mps 682 mmHg 93%
    02:00 +6°C° 0 mm 2 mps 682 mmHg 93%
    03:00 +4°C° 0 mm 3 mps 682 mmHg 94%
    04:00 +4°C° 0 mm 3 mps 682 mmHg 94%
    05:00 +6°C° 0 mm 4 mps 682 mmHg 88%
    06:00 +8°C° 0 mm 4 mps 682 mmHg 82%
    07:00 +10°C° 0 mm 5 mps 682 mmHg 77%
    08:00 +12°C° 0 mm 5 mps 682 mmHg 72%
    09:00 +13°C° 0 mm 6 mps 682 mmHg 67%
    10:00 +15°C° 0 mm 6 mps 682 mmHg 63%
    11:00 +15°C° 0 mm 7 mps 681 mmHg 62%
    12:00 +16°C° 0 mm 7 mps 681 mmHg 60%
    13:00 +16°C° 0 mm 8 mps 681 mmHg 59%
    14:00 +16°C° 0 mm 8 mps 680 mmHg 59%
    15:00 +17°C° 0 mm 8 mps 680 mmHg 59%
    16:00 +17°C° 0 mm 8 mps 679 mmHg 60%
    17:00 +16°C° 0 mm 7 mps 679 mmHg 62%
    18:00 +14°C° 0 mm 7 mps 678 mmHg 65%
    19:00 +13°C° 0 mm 6 mps 677 mmHg 67%
    20:00 +12°C° 0 mm 7 mps 677 mmHg 64%
    21:00 +12°C° 0 mm 8 mps 677 mmHg 60%
    22:00 +12°C° 0 mm 9 mps 677 mmHg 57%
    23:00 +12°C° 0 mm 9 mps 676 mmHg 58%

    6 June, Saturday

    Time Temperature Precipitation Wind Pressure Humidity
    00:00 +12°C° 0 mm 9 mps 675 mmHg 59%
    01:00 +11°C° 0 mm 10 mps 675 mmHg 61%
    02:00 +11°C° 0.1 mm 9 mps 674 mmHg 65%
    03:00 +10°C° 0.1 mm 8 mps 674 mmHg 70%
    04:00 +10°C° 0.1 mm 8 mps 673 mmHg 74%
    05:00 +11°C° 0 mm 8 mps 673 mmHg 76%
    06:00 +11°C° 0 mm 8 mps 673 mmHg 79%
    07:00 +12°C° 0 mm 8 mps 672 mmHg 81%
    08:00 +12°C° 0.2 mm 7 mps 672 mmHg 84%
    09:00 +12°C° 0.2 mm 7 mps 672 mmHg 87%
    10:00 +13°C° 0.2 mm 6 mps 672 mmHg 90%
    11:00 +12°C° 2.5 mm 5 mps 671 mmHg 93%
    12:00 +12°C° 2.5 mm 3 mps 671 mmHg 95%
    13:00 +13°C° 2.5 mm 2 mps 671 mmHg 97%
    14:00 +15°C° 0.4 mm 2 mps 671 mmHg 90%
    15:00 +16°C° 0.4 mm 2 mps 671 mmHg 83%
    16:00 +19°C° 0.4 mm 1 mps 671 mmHg 77%
    17:00 +18°C° 0.1 mm 1 mps 671 mmHg 81%
    18:00 +16°C° 0.1 mm 1 mps 671 mmHg 86%
    19:00 +15°C° 0.1 mm 2 mps 671 mmHg 91%
    20:00 +14°C° 0.5 mm 1 mps 671 mmHg 93%
    21:00 +13°C° 0.5 mm 1 mps 671 mmHg 95%
    22:00 +13°C° 0.5 mm 1 mps 671 mmHg 98%
    23:00 +12°C° 2.1 mm 2 mps 671 mmHg 98%

    7 June, Sunday

    Time Temperature Precipitation Wind Pressure Humidity
    00:00 +12°C° 2.1 mm 2 mps 671 mmHg 98%
    01:00 +11°C° 2.1 mm 3 mps 671 mmHg 98%
    02:00 +11°C° 2.2 mm 4 mps 671 mmHg 97%
    03:00 +10°C° 2.2 mm 4 mps 671 mmHg 96%
    04:00 +9°C° 2.2 mm 5 mps 671 mmHg 95%
    05:00 +10°C° 0 mm 5 mps 671 mmHg 94%
    06:00 +10°C° 0 mm 6 mps 671 mmHg 92%
    07:00 +10°C° 0 mm 6 mps 672 mmHg 90%
    08:00 +11°C° 0.1 mm 6 mps 672 mmHg 86%
    09:00 +12°C° 0.1 mm 7 mps 672 mmHg 83%
    10:00 +12°C° 0.1 mm 7 mps 673 mmHg 79%
    11:00 +14°C° 0 mm 7 mps 673 mmHg 76%
    12:00 +15°C° 0 mm 7 mps 673 mmHg 72%
    13:00 +16°C° 0 mm 7 mps 674 mmHg 69%
    14:00 +15°C° 0 mm 7 mps 674 mmHg 70%
    15:00 +15°C° 0 mm 6 mps 674 mmHg 71%
    16:00 +14°C° 0 mm 6 mps 674 mmHg 72%
    17:00 +13°C° 0 mm 5 mps 674 mmHg 76%
    18:00 +12°C° 0 mm 4 mps 674 mmHg 81%
    19:00 +11°C° 0 mm 3 mps 675 mmHg 85%
    20:00 +10°C° 0 mm 4 mps 675 mmHg 87%
    21:00 +8°C° 0 mm 5 mps 675 mmHg 89%
    22:00 +7°C° 0 mm 5 mps 675 mmHg 91%
    23:00 +7°C° 0 mm 5 mps 675 mmHg 91%

    8 June, Monday

    Time Temperature Precipitation Wind Pressure Humidity
    00:00 +6°C° 0 mm 5 mps 675 mmHg 91%
    01:00 +6°C° 0 mm 5 mps 675 mmHg 91%
    02:00 +5°C° 0 mm 6 mps 675 mmHg 89%
    03:00 +5°C° 0 mm 7 mps 675 mmHg 88%
    04:00 +5°C° 0 mm 8 mps 675 mmHg 87%
    05:00 +5°C° 0 mm 8 mps 675 mmHg 85%
    06:00 +6°C° 0 mm 9 mps 674 mmHg 83%
    07:00 +6°C° 0 mm 9 mps 674 mmHg 81%
    08:00 +6°C° 0 mm 10 mps 674 mmHg 80%
    09:00 +6°C° 0 mm 10 mps 674 mmHg 79%
    10:00 +7°C° 0 mm 11 mps 674 mmHg 77%
    11:00 +7°C° 0 mm 11 mps 674 mmHg 75%
    12:00 +8°C° 0 mm 11 mps 673 mmHg 73%
    13:00 +8°C° 0 mm 11 mps 673 mmHg 71%
    14:00 +9°C° 0 mm 11 mps 673 mmHg 70%
    15:00 +9°C° 0 mm 11 mps 674 mmHg 69%
    16:00 +11°C° 0 mm 10 mps 674 mmHg 68%
    17:00 +10°C° 0 mm 9 mps 674 mmHg 70%
    18:00 +10°C° 0 mm 7 mps 674 mmHg 73%
    19:00 +10°C° 0 mm 6 mps 674 mmHg 75%
    20:00 +9°C° 0 mm 6 mps 675 mmHg 74%
    21:00 +9°C° 0 mm 6 mps 675 mmHg 72%
    22:00 +8°C° 0 mm 6 mps 675 mmHg 70%
    23:00 +7°C° 0 mm 6 mps 676 mmHg 74%
    Show more